TimePST,TemperatureF,Dew PointF,Humidity,Sea Level PressureIn,VisibilityMPH,Wind Direction,Wind SpeedMPH,Gust SpeedMPH,PrecipitationIn,Events,Conditions,WindDirDegrees,DateUTC
12:55 AM,30.9,26.1,82,30.10,10.0,Calm,Calm,-,N/A,,Clear,0,2012-11-07 08:55:00
1:55 AM,30.0,26.1,85,30.10,10.0,Calm,Calm,-,N/A,,Clear,0,2012-11-07 09:55:00
2:55 AM,27.0,24.1,89,30.09,10.0,Calm,Calm,-,N/A,,Clear,0,2012-11-07 10:55:00
3:55 AM,30.0,27.0,88,30.07,10.0,Calm,Calm,-,N/A,,Clear,0,2012-11-07 11:55:00
4:55 AM,26.1,23.0,88,30.10,10.0,Calm,Calm,-,N/A,,Clear,0,2012-11-07 12:55:00
5:55 AM,24.1,21.0,88,30.11,10.0,Calm,Calm,-,N/A,,Clear,0,2012-11-07 13:55:00
6:55 AM,25.0,23.0,92,30.13,10.0,West,3.5,-,N/A,,Clear,280,2012-11-07 14:55:00
7:55 AM,36.0,30.9,82,30.10,10.0,Calm,Calm,-,N/A,,Clear,0,2012-11-07 15:55:00
8:55 AM,46.9,33.1,59,30.08,10.0,Calm,Calm,-,N/A,,Clear,0,2012-11-07 16:55:00
9:55 AM,55.0,33.1,43,30.06,10.0,South,3.5,-,N/A,,Clear,170,2012-11-07 17:55:00
10:55 AM,60.1,36.0,41,30.02,10.0,Variable,5.8,-,N/A,,Clear,0,2012-11-07 18:55:00
11:55 AM,63.0,35.1,35,29.97,10.0,SW,9.2,-,N/A,,Clear,230,2012-11-07 19:55:00
12:55 PM,64.0,37.0,37,29.95,10.0,West,10.4,18.4,N/A,,Clear,270,2012-11-07 20:55:00
1:55 PM,63.0,37.0,38,29.94,10.0,West,11.5,-,N/A,,Clear,280,2012-11-07 21:55:00
2:55 PM,64.0,37.0,37,29.94,10.0,West,16.1,23.0,N/A,,Clear,270,2012-11-07 22:55:00
3:55 PM,60.1,37.0,42,29.93,10.0,WSW,11.5,-,N/A,,Clear,250,2012-11-07 23:55:00
4:55 PM,55.9,37.0,49,29.95,10.0,SW,5.8,-,N/A,,Clear,230,2012-11-08 00:55:00
5:55 PM,50.0,37.0,61,29.96,10.0,NW,3.5,-,N/A,,Clear,310,2012-11-08 01:55:00
6:55 PM,52.0,37.9,59,29.93,10.0,West,11.5,-,N/A,,Clear,270,2012-11-08 02:55:00
7:55 PM,48.0,37.0,66,29.90,10.0,Calm,Calm,-,N/A,,Clear,0,2012-11-08 03:55:00
8:55 PM,48.0,37.9,68,29.85,10.0,Calm,Calm,-,N/A,,Partly Cloudy,0,2012-11-08 04:55:00
9:55 PM,44.1,37.0,76,29.81,10.0,Calm,Calm,-,N/A,,Mostly Cloudy,0,2012-11-08 05:55:00
10:55 PM,41.0,36.0,82,29.79,10.0,Calm,Calm,-,N/A,,Mostly Cloudy,0,2012-11-08 06:55:00
11:55 PM,37.9,33.1,83,29.76,8.0,Calm,Calm,-,N/A,,Scattered Clouds,0,2012-11-08 07:55:00